Kyiv, Ukraine

5:04 PM EET on November 13, 2019 (GMT +0200)
Zhuliany

Weather History for UKKK - October, 2019

Change the Weather History Date:

Wednesday, October 23, 2019

  Actual Average (WUND) Record (WUND)
Temperature  
Mean Temperature 54 °F -  
Max Temperature 63 °F - - (-1)
Min Temperature 44 °F - - (-1)
Degree Days  
Heating Degree Days 12    
Growing Degree Days 4 (Base 50)    
Moisture  
Dew Point 49 °F    
Average Humidity 95    
Maximum Humidity 100    
Minimum Humidity 72    
Precipitation  
Precipitation 0.00 in 0.06 in - ()
Sea Level Pressure  
Sea Level Pressure 30.18 in    
Wind  
Wind Speed 2 mph ()    
Max Wind Speed 7 mph    
Max Gust Speed -    
Visibility 1.4 miles    
Events Fog    
Averages and records for this station are not official NWS values.
T = Trace of Precipitation, MM = Missing Value Source: Averaged Metar Reports

Daily Weather History Graph

Daily Weather History Graph

Search for Another Location

Airport or City:

Astronomy

Oct. 23, 2019 Rise Set
Actual Time 7:32 AM EEST 5:51 PM EEST
Civil Twilight 6:59 AM EEST 6:24 PM EEST
Nautical Twilight 6:21 AM EEST 7:02 PM EEST
Astronomical Twilight 5:43 AM EEST 7:40 PM EEST
Moon 12:40 AM EEST (10/23) 4:11 PM EEST (10/23)
Length of Visible Light 11h 25m
Length of Day
10h 18m
Waning Crescent, 30% of the Moon is Illuminated
Oct 23
Waning Crescent
Oct 28
New
Nov 4
First Quarter
Nov 12
Full
Nov 19
Last Quarter

Hourly Weather History & Observations

Time (EEST) Temp. Windchill Dew Point Humidity Pressure Visibility Wind Dir Wind Speed Gust Speed Precip Events Conditions
12:00 AM 51 °F - 51 °F 99% 30.26 in 0 mi South 2.2 mph - - Fog Heavy Fog
12:00 AM 50.0 °F - 50.0 °F 100% 30.24 in 0.1 mi Variable 2.2 mph - N/A Fog Fog
12:30 AM 50.0 °F - 50.0 °F 100% 30.24 in 0.1 mi Calm Calm - N/A Fog Fog
1:00 AM 48.2 °F - 48.2 °F 100% 30.24 in 0.1 mi Calm Calm - N/A Fog Fog
1:30 AM 48.2 °F - 48.2 °F 100% 30.24 in 0.1 mi Calm Calm - N/A Fog Fog
2:00 AM 46.4 °F - 46.4 °F 100% 30.21 in 0.2 mi Calm Calm - N/A   Unknown
2:02 AM 44.6 °F - 44.6 °F 100% 30.21 in 0.2 mi Calm Calm - N/A   Unknown
2:24 AM 44.6 °F - 44.6 °F 100% 30.21 in 0.3 mi Variable 2.2 mph - N/A Fog Fog
2:30 AM 46.4 °F - 46.4 °F 100% 30.21 in 0.3 mi Calm Calm - N/A Fog Fog
2:31 AM 46.4 °F - 46.4 °F 100% 30.21 in 0.2 mi Calm Calm - N/A Fog Fog
3:00 AM 49 °F - 49 °F 98% 30.23 in 0 mi South 2.2 mph - - Fog Heavy Fog
3:00 AM 42.8 °F - 42.8 °F 100% 30.21 in 0.1 mi Calm Calm - N/A Fog Fog
3:30 AM 42.8 °F - 42.8 °F 100% 30.21 in 0.1 mi Calm Calm - N/A Fog Fog
4:00 AM 46.4 °F - 46.4 °F 100% 30.21 in 0.2 mi West 2.2 mph - N/A Fog Fog
4:30 AM 44.6 °F - 44.6 °F 100% 30.21 in 0.1 mi WNW 2.2 mph - N/A Fog Fog
5:00 AM 42.8 °F - 42.8 °F 100% 30.21 in 0.1 mi Calm Calm - N/A Fog Fog
5:30 AM 42.8 °F - 42.8 °F 100% 30.21 in 0.2 mi Calm Calm - N/A Fog Fog
5:45 AM 42.8 °F - 42.8 °F 100% 30.21 in 0.1 mi Calm Calm - N/A Fog Fog
6:00 AM 46 °F - 46 °F 97% 30.22 in 0 mi South 4.5 mph - - Fog Heavy Fog
6:00 AM 41.0 °F - 41.0 °F 100% 30.21 in 0.1 mi Calm Calm - N/A Fog Fog
6:30 AM 41.0 °F - 41.0 °F 100% 30.18 in 0.2 mi West 2.2 mph - N/A   Unknown
6:51 AM 42.8 °F - 42.8 °F 100% 30.18 in 0.1 mi Variable 2.2 mph - N/A Fog Fog
7:00 AM 44.6 °F - 44.6 °F 100% 30.18 in 0.1 mi SSW 2.2 mph - N/A Fog Fog
7:30 AM 44.6 °F - 44.6 °F 100% 30.18 in 0.2 mi Calm Calm - N/A Fog Fog
7:53 AM 46.4 °F - 46.4 °F 100% 30.18 in 0.2 mi Calm Calm - N/A Fog Fog
8:00 AM 46.4 °F - 46.4 °F 100% 30.18 in 0.2 mi Calm Calm - N/A Fog Fog
8:19 AM 46.4 °F - 46.4 °F 100% 30.18 in 0.1 mi Calm Calm - N/A Fog Fog
8:30 AM 46.4 °F 44.4 °F 46.4 °F 100% 30.21 in 0.1 mi West 4.5 mph - N/A Fog Fog
9:00 AM 46 °F - 46 °F 98% 30.23 in 0 mi West 2.2 mph - - Fog Heavy Fog
9:00 AM 46.4 °F 44.4 °F 46.4 °F 100% 30.21 in 0.2 mi WSW 4.5 mph - N/A Fog Fog
9:30 AM 46.4 °F 44.4 °F 46.4 °F 100% 30.21 in 0.1 mi WSW 4.5 mph - N/A Fog Fog
10:00 AM 48.2 °F - 48.2 °F 100% 30.21 in 0.1 mi WSW 4.5 mph - N/A Fog Fog
10:05 AM 48.2 °F - 48.2 °F 100% 30.21 in 0.2 mi WSW 4.5 mph - N/A Fog Fog
10:30 AM 50.0 °F - 50.0 °F 100% 30.21 in 0.2 mi SW 4.5 mph - N/A Fog Fog
11:00 AM 51.8 °F - 51.8 °F 100% 30.18 in 0.9 mi WSW 4.5 mph - N/A   Scattered Clouds
11:30 AM 53.6 °F - 53.6 °F 100% 30.18 in - WNW 4.5 mph - N/A   Scattered Clouds
12:00 PM 52 °F - 51 °F 97% 30.20 in 1 mi South 4.5 mph - - Fog Light Fog
12:00 PM 55.4 °F - 55.4 °F 100% 30.18 in - WNW 4.5 mph - N/A   Scattered Clouds
12:30 PM 57.2 °F - 57.2 °F 100% 30.18 in 3.7 mi West 4.5 mph - N/A   Unknown
1:00 PM 60.8 °F - 55.4 °F 82% 30.18 in 3.7 mi SW 4.5 mph - N/A   Unknown
1:30 PM 62.6 °F - 55.4 °F 77% 30.15 in 4.3 mi SSW 4.5 mph - N/A   Unknown
2:00 PM 64.4 °F - 55.4 °F 73% 30.15 in 5.6 mi SSW 4.5 mph - N/A   Unknown
2:30 PM 64.4 °F - 55.4 °F 73% 30.15 in - SW 4.5 mph - N/A   Clear
3:00 PM 61 °F - 54 °F 72% 30.17 in 6 mi South 4.5 mph - -   Partly Cloudy
3:30 PM 64.4 °F - 55.4 °F 73% 30.15 in - SSW 6.7 mph - N/A   Clear
4:30 PM 62.6 °F - 53.6 °F 72% 30.15 in 6.2 mi SSW 4.5 mph - N/A   Scattered Clouds
5:00 PM 62.6 °F - 53.6 °F 72% 30.15 in 5.6 mi SW 4.5 mph - N/A   Unknown
5:30 PM 60.8 °F - 53.6 °F 77% 30.15 in 4.3 mi SW 2.2 mph - N/A   Unknown
6:00 PM 58 °F - 53 °F 78% 30.15 in 6 mi West 2.2 mph - -   Partly Cloudy
6:00 PM 59.0 °F - 53.6 °F 82% 30.15 in 3.1 mi WSW 4.5 mph - N/A   Partly Cloudy
6:30 PM 57.2 °F - 53.6 °F 88% 30.15 in 4.3 mi SW 4.5 mph - N/A   Unknown
7:00 PM 55.4 °F - 53.6 °F 94% 30.15 in - SW 4.5 mph - N/A   Mist
7:30 PM 53.6 °F - 51.8 °F 94% 30.15 in 3.1 mi SW 4.5 mph - N/A   Mist
7:36 PM 53.6 °F - 51.8 °F 94% 30.15 in - SW 4.5 mph - N/A   Mist
8:00 PM 51.8 °F - 51.8 °F 100% 30.15 in 3.1 mi SW 4.5 mph - N/A   Mist
8:30 PM 51.8 °F - 50.0 °F 94% 30.12 in 3.1 mi West 4.5 mph - N/A   Mist
8:48 PM 51.8 °F - 51.8 °F 100% 30.12 in - WSW 4.5 mph - N/A   Mist
9:00 PM 54 °F - 52 °F 89% 30.15 in 2 mi NNW 2.2 mph - -   Mist
9:00 PM 50.0 °F - 48.2 °F 94% 30.15 in - WNW 4.5 mph - N/A   Mist
9:30 PM 51.8 °F - 51.8 °F 100% 30.15 in - Calm Calm - N/A   Mist
10:00 PM 48.2 °F - 48.2 °F 100% 30.15 in 3.1 mi SSW 2.2 mph - N/A   Mist
10:15 PM 50.0 °F - 50.0 °F 100% 30.15 in 1.1 mi SSW 2.2 mph - N/A   Mist
10:30 PM 48.2 °F - 48.2 °F 100% 30.15 in 2.5 mi Calm Calm - N/A   Mist
11:00 PM 48.2 °F - 48.2 °F 100% 30.15 in 0.8 mi Calm Calm - N/A   Mist
11:30 PM 46.4 °F - 46.4 °F 100% 30.15 in 1.7 mi Calm Calm - N/A   Mist
11:50 PM 46.4 °F - 46.4 °F 100% 30.15 in 0.2 mi Calm Calm - N/A   Unknown